Miscellaneous Local Product
Issued by NWS Hastings, NE

Home | Current Version | Previous Version | Graphics & Text | Print | Product List | Glossary Off
Versions: 1 2 3 4 5 6 7 8 9 10 11 12 13 14 15 16 17 18 19 20 21 22 23 24 25 26 27 28 29 30 31 32 33 34 35 36 37 38 39 40 41 42 43 44 45 46 47 48 49 50

000
AXUS43 KGID 201602
MISGRI

GID CWA HOURLY WEATHER ROUNDUP
NATIONAL WEATHER SERVICE HASTINGS NE
1100 AM CDT SUN APR 20 2014

NOTE: "FAIR" INDICATES FEW OR NO CLOUDS BELOW 12,000 FEET WITH NO
SIGNIFICANT WEATHER AND/OR OBSTRUCTIONS TO VISIBILITY.

...SOUTH CENTRAL NEBRASKA...

CITY           SKY/WX    TMP DP  RH WIND       PRES   REMARKS
GRAND ISLAND   PTSUNNY   70  51  51 W9        29.99F
HASTINGS       MOSUNNY   70  50  49 SW12G17   29.99S
KEARNEY        PTSUNNY   66  50  55 W7        30.00F
ORD            MOSUNNY   68  44  42 N6        29.98F
YORK           MOSUNNY   72  52  49 SW14      29.99S
AURORA         MOSUNNY   70  51  51 SW15      29.99S
LEXINGTON      PTSUNNY   59  46  60 CALM      30.01R
HOLDREGE       PTSUNNY   65  50  58 SW3       30.00S
HEBRON         PTSUNNY   73  51  47 SW15G22   30.01R

...NEBRASKA PANHANDLE...

CITY           SKY/WX    TMP DP  RH WIND       PRES   REMARKS
CHADRON        SUNNY     66  44  45 W8        29.95R
ALLIANCE       SUNNY     66  43  43 SW12      29.99S
SCOTTSBLUFF    SUNNY     65  42  43 SW5       30.01S
SIDNEY         PTSUNNY   63  44  50 S10       30.05S

...WESTERN AND NORTH CENTRAL NEBRASKA...

CITY           SKY/WX    TMP DP  RH WIND       PRES   REMARKS
VALENTINE      SUNNY     66  39  37 S13       29.98S
AINSWORTH      SUNNY     67  42  40 SE10      29.99S
ONEILL         SUNNY     67  37  32 E6        29.99S
BROKEN BOW     CLOUDY    66  47  50 SE7       30.00S
IMPERIAL         N/A     61  47  59 MISG      30.03R
NORTH PLATTE   MOSUNNY   63  45  51 VRB3      30.02S
MCCOOK         PTSUNNY   59  50  72 VRB5      30.01S

...EASTERN NEBRASKA...

CITY           SKY/WX    TMP DP  RH WIND       PRES   REMARKS
NORFOLK        MOSUNNY   66  49  54 S7        29.97R
SO SIOUX CITY  PTSUNNY   67  53  61 VRB5      29.97F
TEKAMAH        PTSUNNY   72  50  45 VRB5      29.98R
COLUMBUS       MOSUNNY   64  54  68 SW7       29.99S
ALBION         MOSUNNY   62  44  51 CALM      29.99S
OMAHA EPPLEY   CLOUDY    73  51  46 SW10      29.99S
OFFUTT AFB     MOSUNNY   73  53  48 VRB6      30.00S
MILLARD        MOSUNNY   71  51  49 SW6       29.99S
LINCOLN        PTSUNNY   74  51  44 SW13      30.00R
NEBRASKA CITY  PTSUNNY   74  51  44 SW18G24   30.00S
BEATRICE       PTSUNNY   71  51  48 SW14      30.00S
FALLS CITY     PTSUNNY   75  53  46 SW20      30.02R

...NORTHERN KANSAS...

CITY           SKY/WX    TMP DP  RH WIND       PRES   REMARKS
GOODLAND       PTSUNNY   56  49  77 N7        30.01F
HILL CITY      CLOUDY    68  54  60 SW9       30.00S
PHILLIPSBURG   MOSUNNY   63  54  72 S5        30.00F
SMITH CENTER   MOSUNNY   66  52  59 SW7       30.01S
BELOIT         SUNNY     73  52  46 S13       30.00S
HAYS           CLOUDY    72  54  53 S16       30.02R
RUSSELL        PTSUNNY   72  51  47 S23       30.01R
CONCORDIA      PTSUNNY   73  52  47 SW16      30.01S
SALINA         PTSUNNY   73  53  49 S18       30.04R
TOPEKA         SUNNY     74  52  46 SW16G23   30.07S



USA.gov is the U.S. government's official web portal to all federal, state and local government web resources and services.